This is the latest recevied weather packets stored in our database for station/object WX5RP. If no packets are shown the sender has not sent any weather packets the latest 10 day(s).
| Time | Temp. | Humidity | Pressure | Rain* | Wind** | Luminosity | Snow |
|---|---|---|---|---|---|---|---|
| 1777246517 | 11.67° C | 25% | 1009.2 hPa | 0 mm | - | 329 W/m² | - |
| 1777245917 | 12.22° C | 25% | 1009.5 hPa | 0 mm | - | 357 W/m² | - |
| 1777245317 | 11.11° C | 26% | 1009.5 hPa | 0 mm | - | 335 W/m² | - |
| 1777244717 | 11.11° C | 27% | 1008.8 hPa | 0 mm | - | 327 W/m² | - |
| 1777244116 | 11.11° C | 28% | 1009.2 hPa | 0 mm | - | 335 W/m² | - |
| 1777243517 | 11.11° C | 26% | 1009.1 hPa | 0 mm | - | 236 W/m² | - |
| 1777242917 | 10.56° C | 26% | 1008.9 hPa | 0 mm | - | 203 W/m² | - |
| 1777242316 | 11.11° C | 24% | 1008.5 hPa | 0 mm | - | 227 W/m² | - |
| 1777241717 | 11.67° C | 23% | 1008.8 hPa | 0 mm | - | 345 W/m² | - |
| 1777241117 | 12.22° C | 23% | 1008.8 hPa | 0 mm | - | 450 W/m² | - |
| 1777240517 | 11.67° C | 25% | 1008.5 hPa | 0 mm | - | 451 W/m² | - |
| 1777239917 | 11.67° C | 24% | 1008.2 hPa | 0 mm | - | 504 W/m² | - |
| 1777239316 | 11.67° C | 24% | 1008.3 hPa | 0 mm | - | 481 W/m² | - |
| 1777238716 | 11.67° C | 24% | 1008.1 hPa | 0 mm | - | 619 W/m² | - |
| 1777238116 | 11.67° C | 27% | 1008.1 hPa | 0 mm | - | 652 W/m² | - |
| 1777237516 | 11.11° C | 24% | 1008.9 hPa | 0 mm | - | 482 W/m² | - |
| 1777236916 | 11.11° C | 25% | 1009.4 hPa | 0 mm | - | 583 W/m² | - |
| 1777236316 | 11.11° C | 25% | 1009.4 hPa | 0 mm | - | 453 W/m² | - |
| 1777235716 | 10.56° C | 25% | 1009.4 hPa | 0 mm | - | 395 W/m² | - |
| 1777235116 | 11.11° C | 23% | 1009.4 hPa | 0 mm | - | 303 W/m² | - |
| 1777234516 | 10.56° C | 24% | 1009.4 hPa | 0 mm | - | 293 W/m² | - |
| 1777233917 | 10.56° C | 24% | 1008.8 hPa | 0 mm | - | 379 W/m² | - |
| 1777233316 | 11.67° C | 23% | 1009.2 hPa | 0 mm | - | 694 W/m² | - |
| 1777232716 | 10.56° C | 25% | 1009.2 hPa | 0 mm | - | 707 W/m² | - |
| 1777232116 | 10° C | 25% | 1009.3 hPa | 0 mm | - | 372 W/m² | - |
* Rain latest hour (hover to see other rain measurements)
** Current wind speed in m/s (hover to see current wind gust speed)